TimeCDT,TemperatureF,Dew PointF,Humidity,Sea Level PressureIn,VisibilityMPH,Wind Direction,Wind SpeedMPH,Gust SpeedMPH,PrecipitationIn,Events,Conditions,WindDirDegrees,DateUTC
12:17 AM,71.6,62.6,73,29.81,10.0,West,4.6,-,N/A,,Mostly Cloudy,280,2013-07-06 05:17:00
12:36 AM,71.6,62.6,73,29.81,10.0,Calm,Calm,-,N/A,Thunderstorm,Clear,0,2013-07-06 05:36:00
12:57 AM,69.8,62.6,78,29.81,10.0,Calm,Calm,-,N/A,,Clear,0,2013-07-06 05:57:00
1:17 AM,66.2,62.6,88,29.81,10.0,Calm,Calm,-,N/A,,Clear,0,2013-07-06 06:17:00
1:36 AM,66.2,62.6,88,29.81,10.0,Calm,Calm,-,N/A,,Clear,0,2013-07-06 06:36:00
1:57 AM,64.4,62.6,94,29.81,10.0,Calm,Calm,-,N/A,,Clear,0,2013-07-06 06:57:00
2:17 AM,64.4,62.6,94,29.81,10.0,Calm,Calm,-,N/A,,Clear,0,2013-07-06 07:17:00
2:36 AM,64.4,62.6,94,29.81,10.0,Calm,Calm,-,N/A,,Clear,0,2013-07-06 07:36:00
2:57 AM,64.4,62.6,94,29.81,10.0,Calm,Calm,-,N/A,,Clear,0,2013-07-06 07:57:00
3:17 AM,64.4,60.8,88,29.81,10.0,Calm,Calm,-,N/A,,Clear,0,2013-07-06 08:17:00
3:36 AM,64.4,62.6,94,29.81,10.0,Calm,Calm,-,N/A,,Clear,0,2013-07-06 08:36:00
3:57 AM,64.4,62.6,94,29.82,10.0,Calm,Calm,-,N/A,,Clear,0,2013-07-06 08:57:00
4:17 AM,64.4,62.6,94,29.82,10.0,Calm,Calm,-,N/A,,Clear,0,2013-07-06 09:17:00
4:36 AM,66.2,62.6,88,29.83,10.0,Calm,Calm,-,N/A,,Clear,0,2013-07-06 09:36:00
4:57 AM,64.4,62.6,94,29.83,10.0,Calm,Calm,-,N/A,,Clear,0,2013-07-06 09:57:00
5:17 AM,64.4,62.6,94,29.83,5.0,Calm,Calm,-,N/A,,Clear,0,2013-07-06 10:17:00
5:36 AM,62.6,60.8,94,29.84,4.0,Calm,Calm,-,N/A,,Clear,0,2013-07-06 10:36:00
5:57 AM,62.6,60.8,94,29.84,4.0,Calm,Calm,-,N/A,,Clear,0,2013-07-06 10:57:00
6:17 AM,62.6,62.6,100,29.84,5.0,Calm,Calm,-,N/A,,Clear,0,2013-07-06 11:17:00
6:36 AM,64.4,62.6,94,29.84,7.0,Calm,Calm,-,N/A,,Clear,0,2013-07-06 11:36:00
6:57 AM,66.2,64.4,94,29.84,7.0,Calm,Calm,-,N/A,,Clear,0,2013-07-06 11:57:00
7:16 AM,68.0,64.4,88,29.84,10.0,Calm,Calm,-,N/A,,Clear,0,2013-07-06 12:16:00
7:37 AM,69.8,64.4,83,29.84,10.0,Calm,Calm,-,N/A,,Clear,0,2013-07-06 12:37:00
7:57 AM,69.8,64.4,83,29.84,10.0,Calm,Calm,-,N/A,,Clear,0,2013-07-06 12:57:00
8:16 AM,71.6,66.2,83,29.85,10.0,Calm,Calm,-,N/A,,Clear,0,2013-07-06 13:16:00
8:37 AM,71.6,66.2,83,29.85,10.0,SSE,3.5,-,N/A,,Clear,150,2013-07-06 13:37:00
8:57 AM,71.6,66.2,83,29.85,10.0,SSE,3.5,-,N/A,,Clear,160,2013-07-06 13:57:00
9:16 AM,71.6,66.2,83,29.86,10.0,South,4.6,-,N/A,,Clear,180,2013-07-06 14:16:00
9:37 AM,71.6,66.2,83,29.86,10.0,South,3.5,-,N/A,,Clear,180,2013-07-06 14:37:00
9:57 AM,71.6,64.4,78,29.86,10.0,South,5.8,-,N/A,,Clear,190,2013-07-06 14:57:00
10:16 AM,71.6,64.4,78,29.86,10.0,South,5.8,-,N/A,,Clear,190,2013-07-06 15:16:00
10:37 AM,71.6,64.4,78,29.87,10.0,Calm,Calm,-,N/A,,Clear,0,2013-07-06 15:37:00
10:56 AM,73.4,64.4,73,29.87,10.0,SSW,3.5,-,N/A,,Clear,200,2013-07-06 15:56:00
11:17 AM,73.4,66.2,78,29.87,10.0,Calm,Calm,-,N/A,,Clear,0,2013-07-06 16:17:00
11:36 AM,75.2,66.2,73,29.87,10.0,Calm,Calm,-,N/A,,Clear,0,2013-07-06 16:36:00
11:56 AM,75.2,66.2,73,29.87,10.0,Calm,Calm,-,N/A,,Scattered Clouds,0,2013-07-06 16:56:00
12:16 PM,73.4,66.2,78,29.87,10.0,South,3.5,-,N/A,,Scattered Clouds,170,2013-07-06 17:16:00
12:37 PM,75.2,66.2,73,29.88,10.0,SSE,5.8,-,N/A,Rain,Light Rain,160,2013-07-06 17:37:00
12:55 PM,73.4,66.2,78,29.88,10.0,SSE,3.5,-,N/A,Rain,Light Rain,160,2013-07-06 17:55:00
1:17 PM,71.6,66.2,83,29.88,10.0,SSE,5.8,-,N/A,Rain,Light Rain,160,2013-07-06 18:17:00
1:36 PM,71.6,66.2,83,29.86,10.0,Calm,Calm,-,N/A,,Scattered Clouds,0,2013-07-06 18:36:00
1:57 PM,73.4,66.2,78,29.86,10.0,South,3.5,-,N/A,,Scattered Clouds,190,2013-07-06 18:57:00
2:17 PM,73.4,66.2,78,29.86,10.0,South,3.5,-,N/A,,Scattered Clouds,170,2013-07-06 19:17:00
2:37 PM,75.2,66.2,73,29.86,10.0,South,4.6,-,N/A,,Clear,180,2013-07-06 19:37:00
2:56 PM,75.2,66.2,73,29.86,10.0,South,5.8,-,N/A,,Clear,180,2013-07-06 19:56:00
3:16 PM,75.2,66.2,73,29.87,10.0,SSW,4.6,-,N/A,,Mostly Cloudy,210,2013-07-06 20:16:00
3:37 PM,73.4,66.2,78,29.89,10.0,SSW,5.8,-,N/A,,Mostly Cloudy,200,2013-07-06 20:37:00
3:56 PM,73.4,66.2,78,29.89,10.0,SSE,4.6,-,N/A,Rain,Light Rain,160,2013-07-06 20:56:00
4:16 PM,73.4,66.2,78,29.88,7.0,SSE,4.6,-,N/A,Rain,Light Rain,160,2013-07-06 21:16:00
4:37 PM,71.6,68.0,88,29.87,10.0,SSE,3.5,-,N/A,,Clear,160,2013-07-06 21:37:00
4:56 PM,71.6,68.0,88,29.87,10.0,South,3.5,-,N/A,,Clear,170,2013-07-06 21:56:00
5:16 PM,73.4,69.8,88,29.87,10.0,South,4.6,-,N/A,,Scattered Clouds,190,2013-07-06 22:16:00
5:36 PM,73.4,68.0,83,29.87,10.0,SW,5.8,-,N/A,,Scattered Clouds,230,2013-07-06 22:36:00
5:56 PM,75.2,66.2,73,29.87,10.0,SW,9.2,-,N/A,,Scattered Clouds,230,2013-07-06 22:56:00
6:17 PM,75.2,66.2,73,29.88,10.0,SSW,9.2,-,N/A,,Scattered Clouds,200,2013-07-06 23:17:00
6:36 PM,73.4,66.2,78,29.89,10.0,SSW,8.1,-,N/A,,Scattered Clouds,210,2013-07-06 23:36:00
6:56 PM,73.4,66.2,78,29.89,10.0,SSW,6.9,-,N/A,,Scattered Clouds,210,2013-07-06 23:56:00
7:17 PM,73.4,66.2,78,29.89,10.0,SSW,6.9,-,N/A,,Mostly Cloudy,200,2013-07-07 00:17:00
7:36 PM,71.6,66.2,83,29.88,10.0,SSW,3.5,-,N/A,,Mostly Cloudy,210,2013-07-07 00:36:00
7:56 PM,71.6,66.2,83,29.88,10.0,SW,3.5,-,N/A,,Scattered Clouds,220,2013-07-07 00:56:00
8:17 PM,71.6,66.2,83,29.88,10.0,Calm,Calm,-,N/A,,Scattered Clouds,0,2013-07-07 01:17:00
8:36 PM,71.6,66.2,83,29.88,10.0,Calm,Calm,-,N/A,,Scattered Clouds,0,2013-07-07 01:36:00
8:57 PM,69.8,66.2,88,29.87,10.0,Calm,Calm,-,N/A,,Clear,0,2013-07-07 01:57:00
9:17 PM,69.8,66.2,88,29.87,10.0,Calm,Calm,-,N/A,,Clear,0,2013-07-07 02:17:00
9:36 PM,68.0,66.2,94,29.88,7.0,Calm,Calm,-,N/A,,Clear,0,2013-07-07 02:36:00
9:57 PM,66.2,66.2,100,29.88,7.0,Calm,Calm,-,N/A,,Clear,0,2013-07-07 02:57:00
10:16 PM,66.2,66.2,100,29.88,7.0,Calm,Calm,-,N/A,,Mostly Cloudy,0,2013-07-07 03:16:00
10:37 PM,66.2,66.2,100,29.88,7.0,Calm,Calm,-,N/A,,Mostly Cloudy,0,2013-07-07 03:37:00
10:56 PM,66.2,64.4,94,29.88,5.0,Calm,Calm,-,N/A,,Scattered Clouds,0,2013-07-07 03:56:00
11:17 PM,66.2,64.4,94,29.88,5.0,Calm,Calm,-,N/A,,Scattered Clouds,0,2013-07-07 04:17:00
11:37 PM,66.2,66.2,100,29.89,5.0,Calm,Calm,-,N/A,,Mostly Cloudy,0,2013-07-07 04:37:00
11:56 PM,66.2,66.2,100,29.88,5.0,Calm,Calm,-,N/A,,Mostly Cloudy,0,2013-07-07 04:56:00